Temp
82 82 81 82 82 81 81 81 81 80 80 80 79 78 78 77 77 74 74 76 75 73 74 74 73 74 76 77 78 78 77 76 70 73 77 79 77 76 78 79 80 81 82
82 82 81 81 81 80 80 80 81 79 80 80 80 80 79 79 77 75 74 76 75 73 73 73 73 76 72 73 75 73 74 74 72 67 72 75 75 76 76 74 77 82 84
79 78 77 77 77 77 77 77 78 78 78 79 79 78 78 79 78 77 76 75 74 74 74 73 73 72 70 72 72 72 74 74 74 73 72 76 77 78 75 76 74 75 81
77 76 74 73 73 73 74 74 75 76 75 76 76 76 77 77 77 77 76 75 74 74 74 74 73 72 71 70 70 70 70 70 71 71 72 73 75 75 76 71 72 76 73
74 74 71 72 73 73 72 72 73 72 74 75 74 74 75 75 77 75 74 74 73 72 73 74 74 71 66 66 72 70 69 69 70 70 71 71 71 72 71 74 69 72 74
70 71 71 71 71 70 70 70 70 70 70 71 71 71 71 74 62 54 61 71 71 71 71 72 73 67 65 58 57 56 60 64 64 66 68 64 64 63 68 69 64 61 64
68 69 70 70 70 70 70 69 67 66 66 66 66 67 67 68 56 52 53 66 67 68 69 69 70 75 67 71 60 54 54 53 54 63 62 65 65 68 68 64 63 60 65
66 67 69 69 68 68 67 65 64 64 63 63 63 64 64 66 53 49 49 62 64 65 66 67 67 67 69 69 70 68 68 69 67 66 64 66 67 69 68 64 63 60 60
65 66 66 66 64 64 63 62 62 61 60 61 62 61 61 62 51 47 50 60 60 61 64 65 67 65 57 49 65 64 65 66 63 54 52 49 48 48 57 58 54 55 55
63 63 63 62 61 60 60 59 59 59 58 61 60 60 57 58 49 45 46 48 48 52 55 58 55 56 51 47 59 63 62 63 65 65 66 55 50 57 50 64 56 53 55
61 60 60 60 58 58 57 58 57 56 55 53 52 50 49 50 52 46 45 53 54 54 54 55 57 51 47 47 46 61 60 60 60 61 62 58 56 54 56 61 58 59 56
58 56 56 57 57 58 55 54 49 47 44 43 44 45 52 54 49 48 44 43 50 54 55 55 55 46 43 43 46 48 43 45 58 56 58 58 56 54 54 60 57 58 66
54 54 53 53 54 53 48 44 42 45 43 42 42 43 44 47 46 45 43 43 44 49 55 52 46 44 44 45 42 43 41 51 50 54 55 59 56 56 58 58 59 64 68
50 49 50 44 43 45 47 45 43 41 40 40 40 41 42 45 46 48 48 47 45 47 47 52 52 50 47 50 52 53 52 51 53 54 56 61 60 58 57 59 60 64 66
44 39 38 41 41 42 41 41 40 42 41 39 39 40 38 39 44 43 41 42 42 42 42 54 54 54 55 59 54 51 52 51 54 55 56 58 57 56 56 61 62 63 66
36 38 38 38 38 38 38 39 41 40 40 39 38 38 40 40 39 39 38 38 38 38 42 45 53 54 54 56 49 51 55 51 53 55 58 59 59 57 58 60 63 64 64
35 36 37 36 36 36 38 38 38 42 41 40 39 38 38 38 38 38 38 37 37 37 41 45 51 54 54 53 50 53 54 54 56 56 58 57 59 57 57 64 68 70 69
35 36 36 36 37 38 39 40 41 40 40 42 42 40 40 39 38 37 37 36 38 39 42 44 52 53 55 56 55 54 55 54 56 57 55 56 57 64 69 68 74 71 70
36 36 38 39 40 40 40 41 41 40 40 40 42 41 41 40 37 37 37 39 40 42 45 50 53 54 55 59 57 54 55 53 54 54 55 56 61 66 71 75 72 49 57
37 37 37 38 38 38 38 38 38 38 38 38 38 39 41 39 40 40 40 40 41 42 47 53 56 56 56 59 63 56 62 57 53 54 54 57 67 72 75 75 74 72 73
37 36 34 38 38 37 37 36 37 37 37 36 36 37 34 37 39 39 40 41 41 42 47 52 56 56 57 61 65 61 60 56 54 55 58 63 67 69 75 75 75 75 75
35 36 38 37 37 36 35 35 36 36 35 35 35 36 34 39 40 40 41 42 43 44 49 52 56 56 58 62 61 61 62 55 57 57 65 68 69 70 74 74 74 75 74
37 39 38 35 35 34 34 34 35 35 34 34 34 34 34 36 38 41 42 42 44 46 51 50 53 55 60 60 60 63 64 60 61 65 66 68 68 70 74 73 73 73 74
34 37 36 36 34 33 33 32 32 32 33 33 34 33 33 34 35 37 43 43 45 49 48 49 51 55 56 60 62 65 68 67 65 69 66 68 67 65 73 73 72 72 74
34 34 35 34 33 33 34 34 34 32 32 32 32 32 33 34 34 35 37 40 45 47 51 54 51 54 56 59 62 65 44 39 55 41 63 64 65 69 73 72 70 72 73
33 32 32 34 33 32 32 32 32 32 31 31 32 32 32 33 33 34 35 37 40 45 47 51 54 56 58 60 61 45 39 40 49 34 57 60 65 70 74 70 71 73 71
MSLP
1004.25 1004.63 1005.24 1005.41 1005.67 1006.28 1006.69 1007.00 1007.41 1007.92 1008.18 1008.39 1008.67 1008.94 1009.17 1009.35 1009.51 1009.72 1009.73 1009.56 1009.40 1009.38 1009.44 1009.39 1009.36 1009.37 1008.93 1008.45 1008.01 1007.57 1007.28 1007.00 1006.16 1005.93 1005.49 1004.71 1004.55 1004.56 1004.26 1004.01 1003.72 1003.17 1002.87
1005.08 1005.38 1005.61 1005.70 1006.06 1006.51 1006.73 1007.06 1007.40 1007.65 1007.92 1008.08 1008.19 1008.38 1008.54 1008.69 1008.80 1008.98 1009.01 1008.80 1008.62 1008.61 1008.61 1008.56 1008.44 1008.34 1008.20 1008.09 1007.76 1007.32 1006.84 1006.63 1006.26 1005.35 1005.39 1004.53 1004.12 1003.98 1003.80 1003.76 1003.54 1002.68 1002.03
1005.89 1006.03 1006.27 1006.76 1006.94 1007.14 1007.39 1007.57 1007.68 1007.68 1007.85 1007.98 1008.01 1008.00 1007.88 1007.91 1007.97 1008.07 1008.07 1008.07 1007.96 1007.77 1007.55 1007.45 1007.43 1007.48 1007.41 1007.33 1007.25 1006.96 1006.55 1006.14 1005.58 1004.66 1003.96 1003.93 1003.26 1003.04 1002.88 1002.86 1002.98 1002.75 1002.31
1006.57 1006.80 1007.08 1007.16 1007.29 1007.50 1007.73 1007.84 1007.90 1007.89 1007.89 1007.81 1007.75 1007.60 1007.48 1007.39 1007.27 1007.15 1006.97 1006.82 1006.74 1006.67 1006.50 1006.43 1006.44 1006.47 1006.53 1006.62 1006.63 1006.53 1006.34 1005.98 1005.39 1004.59 1003.71 1003.11 1002.72 1002.58 1002.30 1002.54 1002.25 1001.88 1001.90
1006.99 1007.08 1007.40 1007.49 1007.60 1007.69 1007.76 1007.80 1007.83 1007.83 1007.63 1007.40 1007.12 1006.96 1006.86 1006.70 1006.46 1006.22 1006.15 1005.91 1005.62 1005.43 1005.32 1005.33 1005.31 1005.48 1005.78 1006.02 1005.89 1005.71 1005.80 1005.65 1004.97 1004.16 1003.29 1002.94 1002.63 1002.17 1001.80 1001.70 1001.95 1001.78 1001.46
1007.74 1007.63 1007.75 1007.67 1007.66 1007.62 1007.60 1007.57 1007.59 1007.40 1007.18 1006.98 1006.70 1006.42 1006.11 1005.79 1005.56 1005.76 1005.84 1005.23 1004.82 1004.40 1003.89 1003.82 1004.01 1004.31 1004.71 1005.24 1005.66 1005.78 1005.87 1005.62 1005.04 1004.34 1003.48 1003.16 1002.95 1002.72 1002.38 1002.02 1001.89 1002.00 1001.26
1008.29 1008.16 1007.97 1007.85 1007.76 1007.61 1007.47 1007.37 1007.23 1007.06 1006.94 1006.66 1006.41 1006.17 1005.65 1005.36 1005.30 1005.36 1005.35 1005.00 1004.30 1003.68 1003.35 1003.13 1002.98 1002.74 1003.02 1003.38 1003.90 1004.46 1004.59 1004.54 1004.48 1004.18 1003.43 1002.76 1002.34 1001.98 1001.90 1001.85 1001.72 1001.77 1001.13
1008.45 1008.20 1007.97 1007.79 1007.62 1007.45 1007.33 1007.12 1006.97 1006.80 1006.58 1006.31 1005.92 1005.58 1005.09 1004.73 1004.83 1004.92 1004.97 1004.53 1003.72 1003.20 1002.84 1002.43 1002.18 1002.14 1002.17 1002.06 1002.27 1002.60 1002.71 1002.70 1002.88 1002.86 1002.59 1002.12 1001.84 1001.54 1001.35 1001.41 1001.47 1001.85 1001.64
1008.20 1007.94 1007.81 1007.75 1007.51 1007.27 1007.01 1006.84 1006.71 1006.50 1006.21 1005.81 1005.32 1004.85 1004.45 1004.07 1004.23 1004.40 1004.48 1003.82 1003.07 1002.56 1002.09 1001.62 1001.21 1000.97 1001.43 1001.82 1001.93 1001.92 1001.91 1001.81 1001.95 1001.75 1001.56 1001.33 1001.21 1001.24 1001.34 1001.35 1001.55 1001.91 1001.63
1008.07 1008.01 1007.98 1007.80 1007.56 1007.18 1006.92 1006.73 1006.47 1006.19 1005.68 1005.21 1004.55 1004.14 1003.84 1003.71 1003.71 1004.14 1004.21 1004.09 1003.42 1002.88 1002.39 1001.78 1001.26 1000.92 1000.95 1001.42 1001.84 1001.44 1000.92 1000.91 1001.08 1000.78 1000.21 1000.65 1000.64 1000.53 1000.75 1000.41 1001.16 1001.84 1001.21
1008.36 1008.19 1007.92 1007.61 1007.28 1007.01 1006.70 1006.42 1006.11 1005.79 1005.46 1005.13 1004.72 1004.48 1004.55 1004.00 1003.41 1003.22 1003.31 1003.08 1002.41 1001.75 1001.24 1000.85 1000.60 1000.39 1000.28 1000.55 1001.12 1001.04 1000.63 1000.74 1000.51 1000.29 999.65 999.46 999.72 1000.08 1000.02 1000.20 1000.30 999.97 1001.10
1008.47 1008.20 1007.83 1007.42 1007.00 1006.57 1006.41 1006.28 1006.45 1006.26 1006.06 1005.58 1005.11 1004.38 1003.44 1002.68 1002.64 1002.39 1002.25 1002.32 1001.89 1001.34 1000.54 1000.22 1000.09 1000.08 1000.28 1000.23 1000.66 1000.40 1000.60 1000.79 1000.18 999.80 999.07 998.75 998.78 999.00 999.33 999.59 999.32 999.70 999.68
1008.39 1007.98 1007.64 1007.36 1006.97 1006.86 1006.76 1006.70 1006.55 1006.12 1005.73 1005.16 1004.68 1003.93 1003.24 1002.82 1002.63 1002.24 1001.95 1001.67 1001.53 1001.06 1000.09 999.55 999.97 999.86 999.74 999.76 999.94 999.93 1000.07 1000.02 999.61 998.94 998.45 998.00 998.34 998.47 998.39 999.25 999.56 998.93 998.43
1008.46 1008.19 1007.86 1008.00 1007.67 1007.29 1006.82 1006.40 1006.07 1005.72 1005.31 1004.85 1004.26 1003.66 1003.08 1002.53 1002.02 1001.54 1001.24 1000.99 1000.90 1000.49 1000.07 999.24 998.84 998.96 998.89 998.72 998.79 998.68 998.75 998.67 998.39 998.13 998.06 997.67 998.22 998.63 998.75 998.87 998.91 998.41 998.23
1008.92 1008.91 1008.56 1008.06 1007.56 1007.02 1006.66 1006.26 1005.77 1005.14 1004.83 1004.38 1003.81 1003.43 1002.90 1002.12 1001.60 1001.42 1001.49 1001.30 1001.07 1000.84 1000.54 998.82 998.22 997.89 997.67 997.25 997.60 997.83 997.66 997.58 997.31 997.58 997.78 997.75 997.89 998.26 998.26 998.42 998.02 997.88 997.81
1009.05 1008.68 1008.34 1007.88 1007.34 1006.78 1006.12 1005.31 1004.77 1004.22 1003.73 1003.44 1003.08 1002.85 1002.12 1001.64 1001.15 1001.05 1001.01 1000.93 1000.94 1000.86 1000.39 999.30 997.86 997.31 996.97 996.50 996.95 996.98 996.80 996.76 996.85 997.22 997.33 997.38 997.56 997.66 997.75 997.88 997.47 997.06 997.25
1008.99 1008.52 1007.97 1007.46 1006.85 1006.17 1005.37 1004.68 1003.84 1002.94 1002.67 1002.20 1001.81 1001.45 1001.14 1000.65 1000.12 1000.04 1000.12 1000.18 1000.27 1000.41 999.90 999.03 997.61 996.79 996.50 996.15 996.57 996.44 996.26 996.31 996.49 996.99 997.18 997.17 997.02 997.13 997.24 997.02 996.45 996.35 996.68
1008.68 1008.11 1007.51 1006.82 1006.21 1005.51 1004.89 1004.17 1003.45 1002.70 1001.84 1001.11 1000.76 1000.53 999.97 999.55 999.10 999.17 999.41 999.68 999.65 999.57 999.11 998.54 997.34 996.58 996.18 995.67 995.63 996.03 996.10 996.26 996.60 997.09 997.33 997.11 996.56 996.28 995.93 995.54 995.28 996.05 996.24
1008.14 1007.49 1006.93 1006.22 1005.58 1005.09 1004.55 1003.92 1003.38 1002.82 1002.25 1001.56 1000.76 1000.06 999.54 999.01 998.64 998.66 998.82 998.89 998.71 998.40 998.16 997.60 997.23 996.37 996.10 995.37 995.22 995.73 996.13 996.38 996.66 997.01 996.95 997.01 996.03 995.77 994.94 994.39 995.04 996.14 996.40
1007.67 1007.12 1006.59 1006.05 1005.53 1005.09 1004.63 1004.09 1003.53 1002.99 1002.45 1001.85 1001.10 1000.45 999.79 999.15 998.60 998.45 998.41 998.36 998.22 998.01 997.67 996.94 996.44 996.23 995.94 995.37 994.79 995.34 995.49 996.23 996.71 996.97 996.95 996.60 995.34 994.54 993.83 994.11 994.44 995.40 995.76
1007.46 1007.04 1006.59 1005.99 1005.64 1005.33 1004.89 1004.43 1003.85 1003.29 1002.75 1002.14 1001.55 1000.93 1000.36 999.59 998.82 998.56 998.33 998.10 997.98 997.88 997.45 996.69 996.24 996.09 995.80 995.26 994.79 995.08 995.52 995.98 996.45 996.41 996.13 995.43 995.07 994.83 994.15 994.42 994.60 994.95 995.00
1007.69 1007.20 1006.69 1006.30 1006.01 1005.69 1005.32 1004.81 1004.23 1003.73 1003.22 1002.57 1001.84 1001.13 1000.56 999.73 998.99 998.64 998.27 998.07 997.90 997.82 997.31 996.67 996.29 996.17 995.68 995.06 995.18 995.01 995.39 995.89 995.95 996.03 995.62 995.20 994.85 994.75 994.30 994.54 994.66 994.79 994.99
1007.91 1007.36 1007.02 1006.89 1006.57 1006.20 1005.67 1005.25 1004.66 1004.16 1003.61 1003.02 1002.34 1001.62 1000.96 1000.28 999.55 998.76 998.40 998.11 997.85 997.62 997.17 997.16 996.68 996.46 995.98 995.96 995.59 995.13 995.00 995.76 995.64 995.48 995.11 994.84 994.77 994.57 994.38 994.42 994.55 994.75 995.03
1008.57 1007.99 1007.71 1007.34 1007.03 1006.60 1006.21 1005.74 1005.22 1004.71 1004.16 1003.54 1002.88 1002.23 1001.54 1000.89 1000.13 999.42 998.55 998.08 997.94 997.55 997.70 997.48 997.16 996.63 996.42 996.21 995.91 995.58 995.53 996.19 996.02 995.51 995.62 995.17 994.90 994.80 994.31 994.37 994.57 994.67 995.01
1009.21 1008.85 1008.38 1008.03 1007.55 1007.10 1006.57 1006.06 1005.59 1005.22 1004.68 1004.11 1003.50 1002.88 1002.22 1001.44 1000.70 999.97 999.29 998.66 997.81 997.60 997.14 997.07 997.39 997.11 996.65 996.56 996.24 995.89 996.66 997.02 996.91 997.07 996.50 996.02 995.30 994.92 994.48 994.49 994.62 994.94 995.42
1010.07 1009.63 1009.29 1008.78 1008.34 1007.93 1007.46 1006.95 1006.43 1005.86 1005.26 1004.67 1004.09 1003.46 1002.84 1002.11 1001.37 1000.61 999.99 999.21 998.43 997.63 997.56 997.09 996.66 996.71 996.68 996.48 996.46 996.61 996.84 997.21 997.42 997.51 997.18 996.53 995.51 994.80 994.49 994.69 994.91 995.14 995.82
Wind_Speed
10 9 9 8 8 9 8 8 8 8 9 10 11 11 12 12 11 11 11 10 11 11 11 11 12 13 10 11 11 11 12 12 14 13 14 15 14 15 15 14 15 13 11
6 6 7 7 6 5 5 5 5 7 8 10 11 13 13 13 13 13 14 13 14 14 14 14 14 11 12 12 12 13 13 12 13 17 15 15 15 14 15 15 12 13 11
6 5 6 5 3 2 2 3 5 6 8 10 12 13 14 14 15 15 16 17 17 17 17 16 15 15 13 12 13 13 13 13 13 15 14 13 14 12 13 13 12 12 11
6 6 6 6 5 4 5 6 7 8 10 11 13 14 15 16 17 18 19 19 18 19 18 18 17 17 16 15 14 14 13 13 14 14 15 15 13 13 12 11 12 11 9
7 7 7 6 6 6 6 7 8 10 11 13 14 16 17 17 16 20 20 19 19 19 18 19 18 19 18 15 13 13 13 14 15 15 15 14 15 14 12 11 11 12 11
7 7 7 8 8 9 10 11 12 13 14 15 16 18 19 16 17 11 14 18 20 20 19 19 19 18 16 14 15 16 16 15 17 16 15 14 17 11 14 13 9 8 12
8 9 9 10 11 12 13 14 15 16 16 17 18 20 21 20 15 15 15 18 20 20 20 19 19 18 18 21 19 20 19 21 22 19 20 17 18 16 15 13 12 9 10
10 11 11 12 14 14 15 15 16 16 17 17 18 20 20 18 15 12 12 19 20 22 21 21 21 22 20 19 19 19 19 17 16 14 18 18 17 16 15 11 9 3 3
13 13 13 13 15 15 16 16 16 16 17 17 18 20 20 19 15 9 10 17 18 20 20 21 21 20 17 11 18 19 19 16 14 16 19 19 14 13 14 5 4 5 3
13 14 14 14 15 16 16 17 16 16 17 15 17 17 18 18 13 13 9 7 13 12 15 19 21 17 13 10 15 18 19 16 16 18 17 10 11 13 14 12 7 6 6
14 14 15 15 16 16 16 14 14 15 15 15 15 14 17 17 17 15 15 15 13 13 11 11 11 18 18 17 15 16 16 13 17 16 15 8 7 7 7 10 10 11 10
14 15 15 15 12 12 15 14 14 13 12 13 13 13 14 13 13 12 12 15 17 15 15 9 11 4 5 6 9 12 13 12 11 11 11 9 7 7 10 12 11 10 10
15 15 14 14 13 13 13 12 10 12 11 11 10 10 10 9 8 13 11 8 12 13 13 10 11 10 10 10 13 13 12 9 9 10 7 7 4 2 6 7 8 15 8
14 15 13 12 13 13 11 9 8 9 9 9 10 10 10 11 11 9 8 6 6 8 9 11 12 13 12 11 9 10 8 8 10 8 7 6 8 5 5 7 10 10 9
13 11 11 10 12 11 9 9 9 12 10 10 10 10 10 11 11 8 8 7 6 8 13 9 7 9 9 11 8 8 7 8 8 7 5 6 5 4 6 8 10 8 8
11 9 10 9 9 9 9 10 14 19 22 22 24 19 13 19 22 19 16 18 13 10 8 9 10 8 9 7 4 7 6 7 10 5 7 6 6 8 7 8 10 8 7
11 11 9 9 8 9 9 9 10 9 14 17 18 19 21 22 23 19 14 14 12 8 7 9 9 7 8 4 5 8 4 5 9 6 5 4 5 5 8 9 12 9 7
11 16 9 8 8 8 8 9 8 9 11 10 8 10 13 17 18 15 12 10 7 9 7 7 9 6 7 7 7 5 3 3 6 6 3 6 6 9 13 12 8 8 6
10 7 8 8 7 8 7 8 7 8 8 8 9 8 9 13 9 7 6 5 6 7 7 9 9 7 7 8 3 6 6 5 5 3 3 7 12 10 10 8 7 1 6
8 11 8 7 6 6 6 7 7 8 8 7 8 8 9 8 4 3 2 4 5 5 8 8 7 7 7 8 6 4 7 6 5 4 6 9 9 9 7 4 6 7 6
6 6 7 6 6 7 7 8 8 8 8 8 8 9 12 8 6 4 3 3 4 5 8 6 6 5 7 8 4 3 5 4 3 5 7 8 6 5 4 4 4 4 4
5 7 8 8 8 8 8 7 8 8 8 8 8 8 14 8 4 5 4 3 3 5 6 5 5 3 6 4 4 3 6 2 3 5 10 7 6 5 5 4 4 4 4
8 8 8 8 8 9 8 7 8 9 8 8 8 8 9 8 8 4 5 3 3 4 6 4 4 6 6 2 4 3 7 5 3 2 4 5 5 5 5 5 5 6 5
7 10 10 9 8 8 8 8 8 10 9 9 9 8 8 9 9 10 6 4 3 2 3 5 4 6 4 4 4 4 3 2 4 3 6 4 5 4 6 6 7 6 4
9 9 10 11 11 10 11 11 9 9 9 9 9 9 9 9 9 9 8 8 4 4 4 7 5 8 9 7 7 7 10 7 6 7 5 7 8 9 6 6 4 6 4
10 10 9 10 9 10 10 10 10 10 10 10 9 9 9 9 9 9 9 8 8 4 5 5 5 12 12 10 11 2 7 4 4 4 7 7 9 7 7 5 8 5 5
Wind_Direction
133 134 143 149 152 164 179 186 185 189 201 203 211 216 223 227 227 227 242 254 239 239 246 251 253 260 264 273 276 273 269 269 270 272 281 283 277 279 285 289 286 271 261
104 119 128 140 148 161 181 187 205 221 227 237 234 234 237 238 238 236 240 249 239 240 244 247 254 257 259 260 265 268 278 287 285 289 286 290 283 287 287 278 276 281 272
61 83 82 83 84 49 307 285 274 265 258 256 254 253 252 253 254 249 249 250 252 253 251 252 255 257 260 264 272 279 279 278 280 278 284 281 283 291 286 276 267 268 274
47 56 57 42 22 350 318 295 280 272 267 262 260 263 264 265 264 262 258 256 251 251 252 253 256 257 259 259 260 265 270 271 274 275 278 278 280 284 280 273 269 246 261
29 25 20 5 351 327 311 300 292 281 274 272 271 268 267 264 259 256 255 254 255 257 255 253 252 250 253 257 260 263 279 280 277 275 275 287 284 280 277 279 268 275 263
0 347 336 327 317 309 301 296 289 285 284 281 275 270 268 264 266 255 262 267 266 267 260 252 251 239 230 223 243 252 257 272 273 272 272 265 272 271 274 277 269 271 270
332 317 309 304 293 289 288 285 281 279 278 275 274 273 271 270 266 258 250 265 264 262 262 261 259 254 233 241 226 226 232 232 240 259 268 270 274 276 274 270 262 251 256
307 302 299 296 294 293 290 287 285 281 278 276 276 277 277 276 273 264 258 274 271 270 270 264 259 256 252 250 251 251 260 271 269 254 257 263 269 270 267 259 260 233 307
299 299 299 300 297 294 289 288 286 283 281 278 277 279 279 281 281 264 272 279 276 277 275 268 262 254 252 231 244 251 261 269 272 250 255 265 258 250 253 165 167 188 185
301 304 300 296 293 290 291 291 290 286 284 284 285 285 286 290 310 313 294 284 266 265 271 273 274 264 247 219 239 249 259 265 277 281 269 242 236 230 193 192 170 188 226
305 299 297 296 295 291 288 286 291 294 295 295 303 303 293 271 268 254 247 264 263 266 259 256 257 249 225 220 215 250 264 284 280 280 274 243 219 209 201 212 186 181 241
300 296 293 293 294 294 296 298 297 292 288 282 279 279 275 291 293 283 245 242 272 272 273 264 271 276 266 229 223 231 246 264 273 267 254 233 187 201 177 184 182 224 224
296 295 300 299 297 305 295 295 288 282 279 278 275 277 280 280 285 281 254 276 287 269 268 251 260 270 271 252 234 246 247 255 255 234 238 198 174 187 140 172 242 215 155
301 296 305 310 295 288 279 281 282 276 271 271 275 277 280 282 280 277 276 273 288 316 292 257 247 249 265 277 276 235 246 238 222 201 217 182 169 173 229 204 211 213 178
305 301 286 282 290 292 284 280 274 274 268 274 274 274 276 274 274 286 281 296 313 314 326 287 265 238 244 240 227 247 234 217 199 201 201 200 204 181 248 235 231 188 192
286 294 290 293 291 287 286 287 268 255 263 260 259 257 269 264 272 266 259 267 272 272 286 287 262 257 261 242 203 260 212 218 186 201 217 227 212 204 207 238 225 190 190
294 296 294 291 287 287 285 285 291 290 260 261 260 260 257 258 267 266 253 247 255 245 245 267 260 262 266 184 219 241 209 183 157 205 235 257 235 239 227 212 214 180 193
294 291 287 284 282 282 287 292 295 306 315 317 293 272 280 271 261 261 252 239 248 225 229 251 267 260 268 264 191 183 168 151 180 197 257 266 258 226 205 206 198 185 185
300 293 293 294 293 307 308 307 311 308 307 310 316 315 322 324 298 277 238 233 232 223 216 219 242 262 277 265 167 163 155 154 173 229 252 256 253 215 221 211 155 257 199
303 302 311 319 323 326 324 328 323 324 325 325 325 328 335 328 335 330 232 225 230 229 232 234 231 259 261 256 227 156 155 166 158 213 231 252 230 221 188 189 153 168 185
327 332 330 335 346 345 342 338 332 335 335 332 327 326 326 318 331 332 316 264 239 226 245 232 231 249 256 240 216 190 145 137 192 240 245 248 204 204 215 160 188 202 203
347 347 1 359 0 357 351 342 344 345 340 335 333 334 334 335 333 338 332 296 252 245 262 248 224 249 264 212 206 210 137 161 254 219 233 228 220 209 191 191 194 207 193
6 11 19 13 7 357 357 354 354 352 346 343 341 342 344 341 337 337 334 335 310 285 234 267 262 229 251 255 301 268 144 181 195 206 243 224 225 207 206 194 201 199 203
6 24 18 20 13 10 6 358 355 353 351 351 348 347 346 344 341 339 339 328 298 229 257 293 287 251 231 236 242 249 139 129 321 46 357 303 242 211 227 200 208 208 189
26 22 29 21 15 11 10 11 10 2 359 356 352 349 345 346 346 342 341 332 311 287 273 195 225 264 278 224 252 232 88 66 2 347 320 306 288 237 208 217 181 166 156
27 23 19 25 21 16 11 8 8 6 5 360 356 353 349 348 344 341 340 335 333 273 271 282 235 223 229 244 232 126 90 66 333 5 318 288 265 242 215 201 159 180 161